Location: ?kun?ru
(16.3916°N, 80.8194°E)
Time: 15:18:56
(UTC+00:00)

USA 81 - Pass Details

Date: 19 May 2025
Orbit: 782 x 786 km, 85.0° (Epoch: 17 June)

Event Time Altitude Azimuth Distance (km) Brightness Sun altitude
Exits shadow 23:03:52 - 191° (S) 2,792 6.6 -14.3°
Reaches altitude 10° 23:05:02 10° 193° (SSW) 2,336 6.1 -14.0°
Maximum altitude 23:10:12 59° 273° (W) 904 4.1 -12.9°
Drops below altitude 10° 23:15:22 10° 352° (N) 2,340 6.7 -11.8°
Sets 23:17:46 0° 356° (N) 3,269 7.6 -11.3°
